x

8413320 - Bar Harbor, Me (atgm1) Weather Station

11:54 - Sat 30th Aug 2014 All times are EDT. -4 hours from GMT.

  • Wind
    10mph, 22mph gusts
  • Sea Temp 56°f
  • Air Temp 68°f
  • Sea Pressure 1024.3mb
  • 8413320 - Bar Harbor, Me
  • 8413320 - Bar Harbor, Me

More Historic Weather Station data

Upgrade to MSW Pro to gain access to the past 30 days of data for over 8000 Wavebouys and Weather Stations around the globe.

Join Pro

Comparision Forecast

View Surf forecast
   
sam. 08/30 11:54 10 22 mph 1024.3mb 56f 68f
11:48 13 23 mph 1024.4mb 57f 67f
11:42 13 21 mph 1024.5mb 56f 67f
11:36 14 18 mph 1024.5mb 56f 67f
11:30 9 16 mph 1024.5mb 56f 68f
11:24 9 14 mph 1024.5mb 57f 68f
11:18 11 18 mph 1024.6mb 58f 68f
11:12 10 23 mph 1024.8mb 57f 67f
11:06 10 22 mph 1024.8mb 57f 67f
11:00 8 15 mph 1024.8mb 57f 67f
10:54 6 15 mph 1024.8mb 58f 67f
10:48 11 18 mph 1024.9mb 58f 67f
10:42 9 16 mph 1024.9mb 58f 67f
10:36 10 18 mph 1025mb 58f 67f
10:30 10 16 mph 1024.9mb 58f 67f
10:24 5 9 mph 1025mb 58f 68f
10:18 3 10 mph 1025.1mb 58f 67f
10:12 6 13 mph 1025mb 58f 66f
10:06 7 18 mph 1025.1mb 59f 66f
10:00 7 18 mph 1025.2mb 59f 66f
9:54 9 17 mph 1025.3mb 59f 66f
9:48 6 13 mph 1025.2mb 59f 66f
9:42 6 14 mph 1025.2mb 59f 66f
9:36 9 15 mph 1025.2mb 59f 65f
9:30 7 14 mph 1025.1mb 59f 65f
9:24 5 13 mph 1025.1mb 59f 65f
9:18 7 10 mph 1025.2mb 60f 64f
9:12 8 14 mph 1025.1mb 60f 64f
9:06 9 14 mph 1025.2mb 60f 64f
9:00 9 16 mph 1025.2mb 60f 64f
8:54 10 18 mph 1025.2mb 60f 64f
8:48 11 20 mph 1025mb 60f 64f
8:42 10 18 mph 1025.2mb 60f 64f
8:36 8 16 mph 1025.3mb 60f 64f
8:30 10 16 mph 1025.2mb 60f 64f
8:24 10 22 mph 1025.1mb 60f 64f
8:18 13 18 mph 1025.2mb 60f 64f
8:12 11 18 mph 1025.2mb 60f 64f
8:06 8 14 mph 1025.2mb 60f 64f
8:00 6 14 mph 1025.3mb 60f 64f
7:54 5 10 mph 1025.3mb 60f 64f
7:48 5 13 mph 1025.3mb 60f 63f
7:42 5 9 mph 1025.3mb 60f 63f
7:36 3 10 mph 1025.3mb 60f 63f
7:30 1 5 mph 1025.3mb 60f 63f
7:24  -  mph 1025.5mb 60f 62f
7:18 1 3 mph 1025.5mb 60f 61f
7:12 1 2 mph 1025.4mb 60f 61f
7:06 1 2 mph 1025.4mb 60f 60f
7:00  -  2 mph 1025.3mb 60f 59f
6:54  -  3 mph 1025.3mb 60f 59f
6:48  -  2 mph 1025.3mb 60f 58f
6:42 2 3 mph 1025.4mb 60f 58f
6:36  -  2 mph 1025.4mb 60f 58f
6:30  -  2 mph 1025.6mb 60f 58f
6:24 2 3 mph 1025.5mb 60f 57f
6:18 2 5 mph 1025.5mb 60f 56f
6:12 3 5 mph 1025.5mb 60f 56f
6:06 3 5 mph 1025.6mb 60f 56f
6:00  -  2 mph 1025.5mb 60f 56f
5:54 1 3 mph 1025.6mb 60f 56f
5:48 2 3 mph 1025.5mb 60f 56f
5:42 2 5 mph 1025.4mb 60f 56f
5:36 2 3 mph 1025.4mb 60f 56f
5:30 1 2 mph 1025.4mb 60f 56f
5:24 2
mph
1025.3mb 60f 56f
5:18  -  mph 1025.2mb 60f 56f
5:12  -  mph 1025.3mb 60f 55f
5:06  -  1 mph 1025.2mb 60f 55f
5:00  -  2 mph 1025.1mb 60f 55f
4:54 3
mph
1025.1mb 60f 55f
4:48 2 3 mph 1025mb 59f 55f
4:42 2 3 mph 1024.9mb 59f 55f
4:36 1 2 mph 1024.8mb 59f 55f
4:30 2 3 mph 1024.9mb 60f 55f
4:24  -  mph 1024.9mb 59f 55f
4:18  -  mph 1024.9mb 59f 55f
4:12  -  mph 1025mb 59f 55f
4:06  -  2 mph 1024.9mb 59f 55f
4:00 2 3 mph 1025mb 59f 55f
3:54 2 3 mph 1024.9mb 58f 55f
3:48 2 3 mph 1025mb 58f 56f
3:42 2 5 mph 1025mb 58f 57f
3:36 3 6 mph 1025mb 58f 57f
3:30  -  2 mph 1025mb 58f 56f
3:24 1 3 mph 1024.9mb 57f 56f
3:18 2 3 mph 1024.9mb 57f 56f
3:12 1 6 mph 1024.9mb 57f 56f
3:06 5 6 mph 1025mb 58f 56f
3:00 3 5 mph 1024.9mb 58f 56f
2:54 2 3 mph 1024.9mb 58f 57f
2:48  -  3 mph 1024.8mb 59f 58f
2:42  -  1 mph 1024.8mb 58f 57f
2:36  -  2 mph 1024.8mb 58f 57f
2:30 2 3 mph 1024.9mb 58f 58f
2:24 2 3 mph 1024.9mb 58f 57f
2:18 2 3 mph 1024.9mb 58f 57f
2:12  -  3 mph 1024.8mb 58f 58f
2:06 1 5 mph 1024.8mb 58f 58f
2:00 2 6 mph 1024.7mb 58f 59f
1:54 3 7 mph 1024.7mb 57f 58f
1:48 3 6 mph 1024.6mb 57f 58f
1:42 2 6 mph 1024.5mb 58f 58f
1:36  -  1 mph 1024.5mb 57f 58f
1:30  -  2 mph 1024.3mb 57f 58f
1:24 2
mph
1024.3mb 57f 58f
1:18  -  2 mph 1024.3mb 57f 58f
1:12 1 2 mph 1024.3mb 57f 58f
1:06  -  3 mph 1024.4mb 57f 57f
1:00 2 6 mph 1024.4mb 57f 57f
12:54  -  2 mph 1024.3mb 56f 59f
12:48  -  1 mph 1024.4mb 57f 59f
12:42 1 3 mph 1024.3mb 57f 59f
12:36 3 6 mph 1024.4mb 57f 60f
12:30 3 5 mph 1024.4mb 57f 60f
12:24  -  3 mph 1024.4mb 57f 59f
12:18 2 3 mph 1024.4mb 57f 60f
12:12 1 2 mph 1024.3mb 56f 60f
12:06 1 3 mph 1024.2mb 56f 60f
12:00 1 2 mph 1024.1mb 56f 60f
ven. 08/29 11:54 1 5 mph 1024.1mb 56f 60f
11:48 2 5 mph 1024.2mb 57f 60f
11:42 1 5 mph 1024.1mb 56f 60f
11:36 5 7 mph 1024.1mb 57f 60f
11:30 6 7 mph 1024.1mb 57f 60f
11:24 2 3 mph 1024.2mb 58f 60f
11:18 2 5 mph 1024mb 57f 60f
11:12 1 2 mph 1024mb 57f 60f
11:06 1 6 mph 1023.8mb 57f 60f
11:00 1 6 mph 1023.9mb 58f 59f
10:54 1 5 mph 1023.9mb 58f 58f
10:48 2 5 mph 1023.9mb 58f 57f
10:42 1 2 mph 1023.8mb 58f 57f
10:36 1 2 mph 1023.7mb 58f 57f
10:30 1
mph
1023.7mb 59f 58f
10:24  -  5 mph 1023.6mb 59f 57f
10:18 3 5 mph 1023.6mb 59f 58f
10:12 3 5 mph 1023.5mb 60f 58f
10:06 2 3 mph 1023.4mb 60f 58f
10:00 1 2 mph 1023.3mb 61f 58f
9:54  -  mph 1023.4mb 61f 58f
9:48  -  1 mph 1023.3mb 61f 58f
9:42  -  mph 1023.3mb 61f 58f
9:36  -  mph 1023.3mb 60f 59f
9:30  -  mph 1023.3mb 61f 59f
9:24  -  mph 1023.2mb 61f 59f
9:18  -  mph 1023.2mb 61f 59f
9:12  -  mph 1023.2mb 61f 59f
9:06  -  mph 1023.3mb 62f 60f
9:00  -  2 mph 1023.3mb 62f 61f
8:54 1 3 mph 1023.2mb 62f 62f
8:48 2
mph
1023.2mb 62f 62f
8:42  -  2 mph 1023.1mb 62f 62f
8:36 1 2 mph 1023.1mb 62f 62f
8:30 2 3 mph 1023mb 62f 62f
8:24  -  2 mph 1023.1mb 62f 62f
8:18 2 5 mph 1023mb 62f 63f
8:12  -  1 mph 1022.9mb 62f 62f
8:06  -  3 mph 1022.9mb 62f 63f
8:00 2 5 mph 1022.8mb 62f 63f
7:54  -  2 mph 1022.7mb 62f 63f
7:48  -  mph 1022.7mb 62f 62f
7:42  -  2 mph 1022.7mb 62f 63f
7:36 1 6 mph 1022.7mb 62f 64f
7:30 3 6 mph 1022.7mb 62f 64f
7:24  -  5 mph 1022.6mb 62f 63f
7:18 3 6 mph 1022.5mb 62f 64f
7:12 1 5 mph 1022.4mb 62f 64f
7:06  -  3 mph 1022.3mb 62f 65f
7:00 2 3 mph 1022.2mb 62f 65f
6:54 1 3 mph 1022.2mb 62f 65f
6:48 3 7 mph 1022.1mb 62f 66f
6:42 3 6 mph 1022mb 62f 67f
6:36  -  2 mph 1022mb 62f 68f
6:30 1 3 mph 1021.9mb 62f 69f
6:24  -  3 mph 1021.7mb 62f 69f
6:18 2 3 mph 1021.6mb 62f 68f
6:12 2 3 mph 1021.5mb 62f 68f
6:06 3
mph
1021.4mb 62f 68f
6:00 3 6 mph 1021.4mb 62f 67f
5:54 6 8 mph 1021.3mb 62f 65f
5:48 7 11 mph 1021.3mb 62f 64f
5:42 6 8 mph 1021.3mb 62f 64f
5:36 2 3 mph 1021.3mb 62f 70f
5:30 2 5 mph 1021.4mb 62f 70f
5:24 5 6 mph 1021.4mb 62f 70f
5:18 5 6 mph 1021.4mb 62f 69f
5:12 5 6 mph 1021.5mb 62f 68f
5:06 5 6 mph 1021.5mb 62f 69f
5:00 5 6 mph 1021.4mb 62f 69f
4:54 6 7 mph 1021.3mb 62f 70f
4:48 6 7 mph 1021.3mb 62f 70f
4:42 7 8 mph 1021.3mb 62f 69f
4:36 6 7 mph 1021.3mb 62f 69f
4:30 6 8 mph 1021.2mb 62f 70f
4:24 7 8 mph 1021.2mb 62f 69f
4:18 6 8 mph 1021.2mb 62f 69f
4:12 6 8 mph 1021.2mb 61f 69f
4:06 7 8 mph 1021.2mb 61f 69f
4:00 6 8 mph 1021.1mb 62f 69f
3:54 7 9 mph 1021mb 62f 69f
3:48 6 8 mph 1021mb 61f 69f
3:42 6 8 mph 1021mb 62f 68f
3:36 5 7 mph 1021mb 62f 68f
3:30 3 6 mph 1021mb 61f 68f
3:24 5 6 mph 1021.1mb 62f 68f
3:18 5 6 mph 1021.2mb 62f 67f
3:12 5 7 mph 1021.2mb 62f 67f
3:06 6
mph
1021.1mb 62f 67f
3:00 2 6 mph 1021mb 62f 68f
2:54 5 6 mph 1021mb 61f 68f
2:48 5 6 mph 1020.9mb 61f 67f
2:42 5 7 mph 1021mb 61f 67f
2:36 3 7 mph 1021mb 61f 67f
2:30 3 8 mph 1021mb 60f 67f
2:24 5 7 mph 1021mb 60f 67f
2:18 7 9 mph 1021mb 61f 67f
2:12 6 10 mph 1021.1mb 59f 67f
2:06 8 10 mph 1021.1mb 60f 67f
2:00 6 8 mph 1021.2mb 59f 66f
1:54 6 9 mph 1021.3mb 58f 66f
1:48 8 10 mph 1021.3mb 58f 66f
1:42 8 11 mph 1021.3mb 58f 66f
1:36 10 13 mph 1021.3mb 57f 66f
1:30 8 14 mph 1021.3mb 59f 66f
1:24 8 11 mph 1021.2mb 57f 66f
1:18 7 10 mph 1021.3mb 58f 65f
1:12 7 11 mph 1021.3mb 58f 65f
1:06 7 11 mph 1021.3mb 57f 65f
1:00 8 11 mph 1021.3mb 57f 65f
12:54 7 11 mph 1021.3mb 58f 65f
12:48 8 13 mph 1021.3mb 57f 65f
12:42 7 14 mph 1021.3mb 57f 65f
12:36 8 13 mph 1021.3mb 57f 65f
12:30 9 13 mph 1021.3mb 58f 64f
12:24 8 11 mph 1021.3mb 58f 64f
12:18 6 10 mph 1021.2mb 58f 64f
12:12 7 9 mph 1021.2mb 59f 64f
12:06 6 11 mph 1021.2mb 60f 64f
12:00 7 10 mph 1021.2mb 61f 64f
11:54 6 10 mph 1021.1mb 61f 64f
11:48 9 13 mph 1021.2mb 60f 64f
11:42 9 14 mph 1021.1mb 60f 63f
11:36 8 14 mph 1021mb 60f 63f
11:30 6 10 mph 1021mb 61f 63f
11:24 7 14 mph 1021mb 61f 63f
11:18 6 13 mph 1021mb 61f 63f
11:12 7 11 mph 1021mb 61f 62f
11:06 8 13 mph 1020.9mb 61f 62f
11:00 7 10 mph 1020.9mb 61f 62f
10:54 7 13 mph 1020.9mb 61f 62f
10:48 6 10 mph 1020.9mb 61f 62f
10:42 8 9 mph 1021mb 60f 62f
10:36 5 9 mph 1020.9mb 60f 61f
10:30 6 11 mph 1020.9mb 60f 61f
10:24 10 13 mph 1020.8mb 61f 61f
10:18 8 10 mph 1020.8mb 61f 61f
10:12 10 11 mph 1020.8mb 61f 60f
10:06 9 13 mph 1020.7mb 61f 60f
10:00 10 14 mph 1020.7mb 61f 60f
9:54 11 15 mph 1020.6mb 61f 60f
9:48 14 16 mph 1020.6mb 61f 60f
9:42 11 14 mph 1020.5mb 62f 60f
9:36 7 11 mph 1020.5mb 62f 60f
9:30 6 11 mph 1020.5mb 62f 60f
9:24 5 7 mph 1020.4mb 62f 60f
9:18 3 11 mph 1020.3mb 62f 59f
9:12 9 11 mph 1020.2mb 62f 59f
9:06 6 11 mph 1020.1mb 62f 59f
9:00 8 13 mph 1020mb 62f 59f
8:54 6 14 mph 1019.9mb 62f 59f
8:48 8 16 mph 1019.8mb 62f 59f
8:42 8 15 mph 1019.7mb 62f 58f
8:36 7 13 mph 1019.7mb 62f 58f
8:30 9 15 mph 1019.7mb 62f 58f
8:24 10 14 mph 1019.5mb 62f 58f
8:18 9 16 mph 1019.5mb 62f 58f
8:12 8 16 mph 1019.4mb 62f 58f
8:06 10 16 mph 1019.3mb 62f 58f
8:00 8 13 mph 1019.2mb 62f 58f
7:54 10 15 mph 1019.2mb 62f 58f
7:48 8 13 mph 1019.1mb 62f 58f
7:42 9 14 mph 1019mb 62f 58f
7:36 9 14 mph 1019mb 62f 58f
7:30 8 15 mph 1018.9mb 62f 58f
7:24 7 14 mph 1018.8mb 62f 58f
7:18 8 17 mph 1018.6mb 62f 57f
7:12 8 14 mph 1018.6mb 62f 57f
7:06 8 14 mph 1018.5mb 62f 57f
7:00 8 15 mph 1018.5mb 62f 57f
6:54 7 15 mph 1018.4mb 62f 57f
6:48 7 17 mph 1018.2mb 62f 58f
6:42 10 16 mph 1018.1mb 62f 58f
6:36 6 17 mph 1018mb 62f 58f
6:30 8 14 mph 1017.9mb 62f 58f
6:24 7 13 mph 1017.8mb 62f 58f
6:18 8 11 mph 1017.6mb 62f 58f
6:12 8 11 mph 1017.4mb 62f 58f
6:06 7 10 mph 1017.2mb 62f 58f
6:00 7 13 mph 1017.1mb 62f 58f
5:54 8 13 mph 1017mb 62f 58f
5:48 10 14 mph 1016.9mb 62f 58f
5:42 8 14 mph 1016.8mb 62f 58f
5:36 8 14 mph 1016.6mb 62f 58f
5:30 10 13 mph 1016.5mb 62f 58f
5:24 9 13 mph 1016.4mb 62f 58f
5:18 9 14 mph 1016.3mb 62f 58f
5:12 10 14 mph 1016.2mb 62f 58f
5:06 9 15 mph 1016mb 62f 58f
5:00 10 15 mph 1015.9mb 62f 58f
4:54 7 13 mph 1015.8mb 62f 57f
4:48 10 16 mph 1015.8mb 62f 57f
4:42 8 15 mph 1015.7mb 62f 57f
4:36 14 20 mph 1015.5mb 62f 57f
4:30 15 17 mph 1015.5mb 62f 58f
4:24 14 20 mph 1015.3mb 62f 58f
4:18 14 18 mph 1015.2mb 62f 58f
4:12 11 16 mph 1015.2mb 62f 58f
4:06 13 16 mph 1015.1mb 62f 58f
4:00 8 14 mph 1015mb 62f 59f
3:54 9 18 mph 1014.9mb 62f 59f
3:48 8 15 mph 1014.8mb 62f 59f
3:42 8 16 mph 1014.5mb 62f 59f
3:36 11 21 mph 1014.5mb 62f 59f
3:30 9 17 mph 1014.4mb 62f 59f
3:24 9 15 mph 1014.3mb 62f 59f
3:18 11 18 mph 1014.3mb 62f 59f
3:12 13 20 mph 1014.2mb 62f 59f
3:06 14 20 mph 1014mb 62f 59f
3:00 14 20 mph 1014mb 62f 59f
2:54 14 20 mph 1013.9mb 62f 59f
2:48 14 22 mph 1013.9mb 62f 59f
2:42 16 22 mph 1013.8mb 62f 59f
2:36 15 20 mph 1013.8mb 62f 59f
2:30 14 21 mph 1013.7mb 62f 59f
2:24 15 18 mph 1013.7mb 62f 59f
2:18 13 21 mph 1013.6mb 62f 59f
2:12 14 21 mph 1013.5mb 62f 59f
2:06 17 22 mph 1013.4mb 62f 59f
2:00 18 23 mph 1013.3mb 62f 60f
1:54 18 24 mph 1013.3mb 62f 60f
1:48 18 24 mph 1013.2mb 62f 60f
1:42 20 24 mph 1013.2mb 62f 60f
1:36 17 22 mph 1013.1mb 62f 60f
1:30 16 21 mph 1013mb 62f 60f
1:24 17 23 mph 1012.8mb 62f 60f
1:18 16 22 mph 1012.8mb 63f 60f
1:12 17 21 mph 1012.7mb 62f 60f
1:06 17 21 mph 1012.6mb 62f 60f
1:00 16 21 mph 1012.6mb 62f 61f
12:54 15 17 mph 1012.6mb 62f 61f
12:48 13 18 mph 1012.6mb 60f 61f
12:42 15 20 mph 1012.5mb 61f 61f
12:36 13 16 mph 1012.4mb 60f 61f
12:30 10 16 mph 1012.4mb 61f 61f
12:24 11 16 mph 1012.2mb 62f 61f
12:18 13 16 mph 1012.1mb 62f 61f
12:12 13 17 mph 1012mb 62f 62f
12:06 14 18 mph 1012mb 61f 62f
12:00 15 20 mph 1012mb 61f 62f
jeu. 08/28 11:54 15 18 mph 1011.9mb 61f 62f
11:48 15 21 mph 1011.8mb 61f 62f
11:42 15 18 mph 1011.6mb 61f 62f
11:36 15 18 mph 1011.5mb 61f 63f
11:30 14 20 mph 1011.5mb 61f 63f
11:24 15 18 mph 1011.3mb 61f 63f
11:18 14 17 mph 1011.3mb 61f 63f
11:12 15 18 mph 1011.2mb 61f 63f
11:06 14 16 mph 1011.2mb 61f 63f
11:00 14 17 mph 1011.1mb 61f 63f
10:54 14 22 mph 1011mb 61f 63f
10:48 15 18 mph 1010.9mb 61f 63f
10:42 15 21 mph 1010.9mb 61f 64f
10:36 15 20 mph 1010.8mb 61f 64f
10:30 16 20 mph 1010.7mb 62f 64f
10:24 17 21 mph 1010.7mb 62f 64f
10:18 20 23 mph 1010.6mb 61f 64f
10:12 17 22 mph 1010.6mb 61f 64f
10:06 16 18 mph 1010.5mb 62f 64f
10:00 14 18 mph 1010.5mb 62f 64f
9:54 14 15 mph 1010.4mb 62f 64f
9:48 15 17 mph 1010.3mb 62f 64f
9:42 13 16 mph 1010.3mb 61f 64f
9:36 13 16 mph 1010.2mb 61f 65f
9:30 13 18 mph 1010.2mb 62f 65f
9:24 15 20 mph 1010.2mb 62f 65f
9:18 16 22 mph 1010.2mb 62f 65f
9:12 14 16 mph 1010.1mb 62f 65f
9:06 11 15 mph 1010.1mb 62f 65f
9:00 13 15 mph 1010mb 62f 65f
8:54 13 14 mph 1010mb 62f 65f
8:48 11 13 mph 1009.9mb 62f 65f
8:42 11 14 mph 1009.9mb 62f 65f
8:36 13 14 mph 1009.8mb 62f 65f
8:30 11 13 mph 1009.7mb 62f 65f
8:24 13 14 mph 1009.6mb 62f 65f
8:18 14 16 mph 1009.4mb 63f 65f
8:12 14 17 mph 1009.3mb 63f 65f
8:06 14 17 mph 1009.1mb 63f 65f
8:00 14 17 mph 1009mb 63f 65f
7:54 13 14 mph 1009mb 63f 65f
7:48 13 16 mph 1008.9mb 63f 65f
7:42 15 21 mph 1008.8mb 63f 65f
7:36 18 23 mph 1008.8mb 63f 65f
7:30 17 22 mph 1008.8mb 63f 66f
7:24 17 24 mph 1008.8mb 63f 66f
7:18 16 23 mph 1008.7mb 63f 66f
7:12 16 23 mph 1008.6mb 63f 66f
7:06 18 24 mph 1008.5mb 63f 67f
7:00 18 24 mph 1008.5mb 63f 67f
6:54 20 30 mph 1008.5mb 63f 67f
6:48 20 25 mph 1008.4mb 63f 67f
6:42 17 22 mph 1008.3mb 63f 67f
6:36 20 26 mph 1008.2mb 63f 67f
6:30 17 24 mph 1008.1mb 63f 67f
6:24 17 26 mph 1008mb 63f 67f
6:18 20 26 mph 1007.9mb 62f 67f
6:12 16 21 mph 1007.8mb 63f 67f
6:06 16 24 mph 1007.7mb 63f 67f
6:00 15 24 mph 1007.7mb 63f 67f
5:54 17 23 mph 1007.7mb 63f 67f
5:48 18 29 mph 1007.6mb 63f 67f
5:42 22 29 mph 1007.6mb 63f 67f
5:36 21 33 mph 1007.4mb 63f 69f
5:30 18 28 mph 1007.1mb 63f 71f
5:24 22 25 mph 1006.6mb 63f 73f
5:18 21 25 mph 1006.4mb 63f 73f
5:12 18 23 mph 1006.4mb 62f 74f
5:06 20 22 mph 1006.3mb 63f 73f
5:00 20 23 mph 1006.2mb 62f 73f
4:54 16 21 mph 1006.2mb 63f 74f
4:48 16 20 mph 1006.1mb 63f 74f
4:42 17 21 mph 1006.2mb 64f 73f
4:36 18 22 mph 1006.1mb 64f 74f
4:30 20 22 mph 1006.1mb 64f 74f
4:24 18 22 mph 1006mb 62f 74f
4:18 17 21 mph 1006mb 62f 73f
4:12 16 22 mph 1006mb 62f 73f
4:06 16 22 mph 1005.9mb 62f 73f
4:00 17 23 mph 1005.9mb 63f 73f
3:54 21 24 mph 1005.8mb 63f 73f
3:48 20 23 mph 1005.8mb 63f 73f
3:42 18 26 mph 1005.8mb 63f 74f
3:36 23 26 mph 1005.9mb 62f 74f
3:30 17 22 mph 1005.9mb 62f 74f
3:24 16 22 mph 1005.7mb 63f 73f
3:18 18 21 mph 1005.7mb 63f 73f
3:12 14 17 mph 1005.7mb 63f 73f
3:06 15 21 mph 1005.7mb 63f 73f
3:00 17 22 mph 1005.8mb 62f 74f
2:54 14 18 mph 1005.8mb 62f 73f
2:48 14 20 mph 1005.9mb 62f 73f
2:42 15 21 mph 1005.9mb 62f 73f
2:36 16 21 mph 1005.9mb 63f 73f
2:30 14 18 mph 1005.9mb 63f 72f
2:24 13 20 mph 1005.9mb 63f 73f
2:18 16 21 mph 1005.9mb 62f 73f
2:12 17 23 mph 1006mb 63f 73f
2:06 21 24 mph 1006.1mb 62f 73f
2:00 16 24 mph 1006.1mb 61f 73f
1:54 18 23 mph 1006.1mb 62f 73f
1:48 16 21 mph 1006.2mb 62f 72f
1:42 15 21 mph 1006.2mb 62f 72f
1:36 15 21 mph 1006.1mb 62f 73f
1:30 15 23 mph 1006.1mb 63f 73f
1:24 16 20 mph 1006.1mb 62f 72f
1:18 13 17 mph 1006mb 60f 72f
1:12 15 18 mph 1006mb 60f 72f
1:06 14 17 mph 1006.1mb 60f 72f
1:00 13 17 mph 1006.1mb 60f 72f
12:54 9 14 mph 1006mb 60f 72f
12:48 13 17 mph 1006.1mb 60f 72f
12:42 11 17 mph 1006.1mb 60f 71f
12:36 14 18 mph 1006.2mb 59f 72f
12:30 14 18 mph 1006.2mb 59f 72f
12:24 14 17 mph 1006.3mb 59f 71f
12:18 14 18 mph 1006.4mb 59f 71f
12:12 13 17 mph 1006.4mb 58f 72f
12:06 14 20 mph 1006.4mb 58f 72f
12:00 13 17 mph 1006.5mb 59f 71f
11:54 13 17 mph 1006.6mb 60f 72f
11:48 13 17 mph 1006.7mb 60f 71f
11:42 13 16 mph 1006.7mb 59f 72f
11:36 11 15 mph 1006.9mb 58f 71f
11:30 11 16 mph 1007mb 58f 70f
11:24 11 14 mph 1007.1mb 58f 71f
11:18 11 15 mph 1007.1mb 58f 71f
11:12 11 16 mph 1007.2mb 59f 71f
11:06 9 11 mph 1007.2mb 59f 70f
11:00 8 13 mph 1007.3mb 60f 70f
10:54 9 13 mph 1007.4mb 60f 70f
10:48 9 13 mph 1007.4mb 60f 70f
10:42 10 15 mph 1007.5mb 60f 70f
10:36 9 15 mph 1007.4mb 60f 70f
10:30 10 15 mph 1007.5mb 60f 70f
10:24 11 14 mph 1007.6mb 60f 70f
10:18 11 14 mph 1007.7mb 60f 70f
10:12 11 14 mph 1007.8mb 59f 70f
10:06 10 15 mph 1007.8mb 59f 70f
10:00 10 14 mph 1007.9mb 60f 69f
9:54 9 13 mph 1007.9mb 60f 69f
9:48 11 13 mph 1007.9mb 60f 69f
9:42 10 13 mph 1007.9mb 60f 68f
9:36 10 13 mph 1007.9mb 60f 68f
9:30 9 13 mph 1007.9mb 60f 68f
9:24 7 9 mph 1007.9mb 60f 68f
9:18 8 9 mph 1008mb 60f 67f
9:12 8 10 mph 1008mb 60f 67f
9:06 8 10 mph 1008.1mb 60f 67f
9:00 9 13 mph 1008.1mb 60f 67f
8:54 7 9 mph 1008.1mb 60f 67f
8:48 6 8 mph 1008.1mb 60f 67f
8:42 6 8 mph 1008.1mb 60f 66f
8:36 7 8 mph 1008.1mb 60f 66f
8:30 8 9 mph 1008.1mb 60f 66f
8:24 7 8 mph 1008.1mb 60f 65f
8:18 7 9 mph 1008.2mb 60f 65f
8:12 7 9 mph 1008.2mb 60f 65f
8:06 7 8 mph 1008.1mb 60f 65f
8:00 8 9 mph 1008.1mb 60f 64f
7:54 7 8 mph 1008.2mb 60f 64f
7:48 7 9 mph 1008.2mb 60f 64f
7:42 6 8 mph 1008.2mb 60f 64f
7:36 5 6 mph 1008.2mb 60f 64f
7:30 6 8 mph 1008.2mb 60f 63f
7:24 8 9 mph 1008.2mb 60f 64f
7:18 7 9 mph 1008.1mb 60f 64f
7:12 8 10 mph 1008.2mb 60f 64f
7:06 8 10 mph 1008.2mb 60f 64f
7:00 9 11 mph 1008.1mb 60f 64f
6:54 9 13 mph 1008mb 60f 64f
6:48 10 14 mph 1008mb 60f 64f
6:42 10 11 mph 1008.1mb 60f 64f
6:36 9 10 mph 1008.1mb 60f 64f
6:30 9 11 mph 1008.2mb 60f 64f
6:24 8 10 mph 1008.1mb 60f 64f
6:18 8 9 mph 1008mb 60f 64f
6:12 7 9 mph 1008mb 60f 64f
6:06 7 9 mph 1007.9mb 60f 64f
6:00 7 9 mph 1007.9mb 60f 64f
5:54 8 10 mph 1007.8mb 60f 64f
5:48 9 10 mph 1007.8mb 60f 64f
5:42 7 9 mph 1007.7mb 60f 64f
5:36 9 10 mph 1007.8mb 60f 65f
5:30 7 8 mph 1007.8mb 60f 65f
5:24 7 8 mph 1007.9mb 60f 65f
5:18 6 7 mph 1007.9mb 61f 65f
5:12 5 7 mph 1007.8mb 61f 64f
5:06 5 6 mph 1007.9mb 61f 64f
5:00 5 6 mph 1007.9mb 61f 65f
4:54 3 6 mph 1007.7mb 61f 65f
4:48 6
mph
1007.9mb 61f 65f
4:42 6 7 mph 1008mb 61f 65f
4:36 7
mph
1008mb 61f 65f
4:30 5
mph
1008mb 60f 64f
4:24 3 6 mph 1008.1mb 60f 65f
4:18 5 6 mph 1008.1mb 61f 66f
4:12 5 6 mph 1008.2mb 60f 65f
4:06 2 5 mph 1008.1mb 60f 64f
4:00 5 6 mph 1008.1mb 60f 65f
3:54 6 8 mph 1008.1mb 61f 66f
3:48 6 8 mph 1008.3mb 61f 64f
3:42 3
mph
1008.3mb 61f 65f
3:36 3 5 mph 1008.3mb 61f 66f
3:30 3
mph
1008.3mb 60f 66f
3:24  -  2 mph 1008.4mb 60f 65f
3:18 1 3 mph 1008.5mb 60f 65f
3:12 2
mph
1008.7mb 60f 65f
3:06 2 3 mph 1008.7mb 60f 65f
3:00 1 3 mph 1008.7mb 60f 65f
2:54 3 5 mph 1008.7mb 60f 65f
2:48 2
mph
1008.9mb 60f 65f
2:42  -  mph 1008.9mb 60f 65f
2:36  -  1 mph 1008.8mb 60f 66f
2:30 2 3 mph 1009mb 60f 67f
2:24 2 5 mph 1009mb 60f 67f
2:18 2 9 mph 1009.2mb 60f 67f
2:12 8 10 mph 1009.2mb 60f 69f
2:06 7 8 mph 1009.2mb 60f 68f
2:00 7 8 mph 1009.1mb 60f 69f
1:54 7 9 mph 1009.2mb 60f 69f
1:48 3 7 mph 1008.8mb 60f 69f
1:42 7 9 mph 1008.8mb 60f 68f
1:36 6 8 mph 1009mb 60f 69f
1:30 5 6 mph 1009mb 60f 70f
1:24 5 7 mph 1009.1mb 59f 70f
1:18 5 6 mph 1009mb 59f 70f
1:12 6 7 mph 1009mb 60f 70f
1:06 6 8 mph 1009.1mb 61f 70f
1:00 6 7 mph 1009.1mb 61f 69f
12:54 6 8 mph 1009.2mb 61f 70f
12:48 5 7 mph 1009.4mb 61f 69f
12:42 5 6 mph 1009.4mb 61f 69f
12:36 3 5 mph 1009.4mb 61f 69f
12:30 3 5 mph 1009.4mb 61f 68f
12:24 5 6 mph 1009.4mb 60f 68f
12:18 5 6 mph 1009.4mb 59f 69f
12:12 5 6 mph 1009.4mb 60f 69f
12:06 5 6 mph 1009.6mb 59f 69f
12:00 3 6 mph 1009.7mb 59f 69f
mer. 08/27 11:54 3
mph
1009.7mb 60f 68f
11:48 2
mph
1009.7mb 60f 67f
11:42 2 3 mph 1009.7mb 59f 67f
11:36 2 3 mph 1009.7mb 59f 67f
11:30 3 6 mph 1009.6mb 60f 67f
11:24 5 6 mph 1009.7mb 59f 67f
11:18 3 5 mph 1009.7mb 60f 67f
11:12 3 5 mph 1009.8mb 59f 67f
11:06 3 5 mph 1009.9mb 59f 67f
11:00 3 5 mph 1009.9mb 59f 67f
10:54 3 5 mph 1009.9mb 59f 67f
10:48 2 3 mph 1009.9mb 58f 67f
10:42 2 3 mph 1010mb 58f 66f
10:36 3 5 mph 1009.9mb 58f 67f
10:30 5 6 mph 1009.9mb 59f 66f
10:24 5 6 mph 1009.9mb 59f 66f
10:18 3
mph
1009.9mb 60f 65f
10:12 1 2 mph 1010mb 60f 65f
10:06 1 2 mph 1010mb 60f 65f
10:00 2 5 mph 1009.9mb 61f 65f
9:54 3 6 mph 1009.9mb 61f 64f
9:48 2 5 mph 1009.9mb 61f 65f
9:42 3 5 mph 1009.9mb 61f 65f
9:36  -  mph 1009.7mb 61f 65f
9:30  -  mph 1009.7mb 61f 65f
9:24  -  mph 1009.7mb 60f 65f
9:18  -  mph 1009.7mb 61f 66f
9:12 1 2 mph 1009.8mb 61f 66f
9:06 2
mph
1009.8mb 61f 65f
9:00 1 2 mph 1009.8mb 61f 65f
8:54  -  2 mph 1009.8mb 61f 66f
8:48 2 3 mph 1009.8mb 61f 66f
8:42 3 5 mph 1009.7mb 61f 66f
8:36 3 5 mph 1009.8mb 61f 65f
8:30  -  mph 1009.8mb 62f 67f
8:24  -  2 mph 1009.8mb 62f 67f
8:18 1 3 mph 1009.8mb 62f 66f
8:12 2
mph
1009.8mb 62f 66f
8:06  -  2 mph 1009.8mb 62f 67f
8:00 1 2 mph 1009.8mb 62f 67f
7:54 1 5 mph 1009.7mb 62f 68f
7:48 3 6 mph 1009.6mb 62f 67f
7:42 3 5 mph 1009.6mb 62f 67f
7:36 5
mph
1009.6mb 62f 67f
7:30 3 5 mph 1009.6mb 62f 67f
7:24 5 9 mph 1009.5mb 62f 66f
7:18 7 8 mph 1009.5mb 62f 67f
7:12  -  mph 1009.4mb 62f 70f
7:06  -  2 mph 1009.3mb 62f 70f
7:00 2 3 mph 1009.3mb 62f 69f
6:54 2 5 mph 1009.3mb 62f 67f
6:48 3 7 mph 1009.3mb 62f 68f
6:42 5 7 mph 1009.3mb 62f 67f
6:36 2 6 mph 1009.2mb 62f 71f
6:30 2 3 mph 1009.2mb 62f 72f
6:24  -  1 mph 1009.3mb 62f 72f
6:18 2 3 mph 1009.3mb 61f 70f
6:12 3 5 mph 1009.3mb 61f 69f
6:06 3 5 mph 1009.3mb 61f 68f
6:00 6 8 mph 1009.3mb 61f 68f
5:54 7 8 mph 1009.3mb 61f 67f
5:48 6 7 mph 1009.3mb 61f 67f
5:42 9 11 mph 1009.2mb 61f 68f
5:36 7 9 mph 1009.2mb 61f 67f
5:30 6 10 mph 1009.1mb 61f 69f
5:24 5 6 mph 1009.1mb 61f 69f
5:18 2 3 mph 1009.1mb 61f 74f
5:12 2 5 mph 1009.1mb 60f 70f
5:06 5 6 mph 1009.2mb 60f 67f
5:00 5 6 mph 1009.2mb 60f 67f
4:54 5 6 mph 1009.1mb 60f 69f
4:48 3 6 mph 1009.1mb 60f 72f
4:42 6 8 mph 1009.1mb 60f 69f
4:36 6 9 mph 1009.1mb 60f 67f
4:30 5 8 mph 1009mb 60f 69f
4:24 3 6 mph 1009mb 60f 71f
4:18 5 9 mph 1008.9mb 60f 71f
4:12 7 9 mph 1009mb 61f 71f
4:06 6 9 mph 1009.2mb 60f 70f
4:00 7 10 mph 1009.2mb 60f 71f
3:54 3 8 mph 1009.3mb 60f 74f
3:48 3 7 mph 1009.2mb 60f 73f
3:42 3 7 mph 1009.3mb 60f 72f
3:36 3 9 mph 1009.2mb 60f 74f
3:30 6 13 mph 1009.3mb 60f 72f
3:24 1 6 mph 1009.4mb 60f 75f
3:18 2 8 mph 1009.4mb 60f 71f
3:12 6 10 mph 1009.4mb 59f 71f
3:06 6 14 mph 1009.5mb 60f 79f
3:00 7 11 mph 1009.5mb 61f 80f
2:54 10 16 mph 1009.4mb 60f 79f
2:48 7 16 mph 1009.4mb 60f 79f
2:42 13 18 mph 1009.5mb 60f 78f
2:36 13 21 mph 1009.6mb 60f 79f
2:30 8 15 mph 1009.8mb 60f 80f
2:24 9 14 mph 1009.8mb 60f 80f
2:18 9 16 mph 1009.8mb 60f 80f
2:12 10 14 mph 1009.9mb 60f 80f
2:06 9 13 mph 1010mb 60f 80f
2:00 9 15 mph 1010.1mb 60f 80f
1:54 9 15 mph 1010.2mb 60f 80f
1:48 13 17 mph 1010.2mb 60f 80f
1:42 11 15 mph 1010.3mb 60f 80f
1:36 9 14 mph 1010.3mb 60f 81f
1:30 6 10 mph 1010.4mb 60f 80f
1:24 8 14 mph 1010.5mb 60f 81f
1:18 6 10 mph 1010.5mb 60f 81f
1:12 5 10 mph 1010.6mb 60f 81f
1:06 7 11 mph 1010.6mb 60f 81f
1:00 5 8 mph 1010.6mb 60f 80f
12:54 6 11 mph 1010.5mb 60f 81f
12:48 6 9 mph 1010.6mb 61f 79f
12:42 2 5 mph 1010.7mb 61f 74f
12:36 2 6 mph 1010.7mb 60f 69f
12:30 2 5 mph 1010.7mb 60f 68f
12:24 5 6 mph 1010.7mb 60f 67f
12:18 5 7 mph 1010.8mb 60f 68f
12:12 6 7 mph 1010.9mb 60f 67f
12:06 6 7 mph 1011mb 60f 67f
12:00 6 7 mph 1011.1mb 60f 69f
11:54 5 6 mph 1011.2mb 60f 69f
11:48 3 5 mph 1011.3mb 59f 65f
11:42 6 7 mph 1011.4mb 59f 66f
11:36 7
mph
1011.3mb 58f 66f
11:30 3 5 mph 1011.3mb 58f 66f
11:24 3 5 mph 1011.4mb 58f 66f
11:18 6
mph
1011.5mb 58f 66f
11:12 5
mph
1011.5mb 58f 69f
11:06 5 6 mph 1011.6mb 58f 66f
11:00 2 3 mph 1011.7mb 58f 65f
10:54 3 5 mph 1011.7mb 58f 64f
10:48 2 3 mph 1011.6mb 58f 67f
10:42 2 5 mph 1011.6mb 58f 66f
10:36 3 6 mph 1011.8mb 58f 65f
10:30 6
mph
1011.9mb 58f 63f
10:24 5 6 mph 1011.9mb 58f 64f
10:18 5 6 mph 1011.8mb 58f 63f
10:12 5 6 mph 1012mb 58f 63f
10:06 5
mph
1012.2mb 58f 63f
10:00 5 6 mph 1012.1mb 58f 64f
9:54 2 5 mph 1012mb 57f 64f
9:48 5 6 mph 1012mb 57f 66f
9:42 6 8 mph 1011.9mb 57f 67f
9:36 3 6 mph 1012.1mb 57f 65f
9:30 7 8 mph 1012.2mb 57f 64f
9:24 5 6 mph 1012.2mb 57f 64f
9:18 2 3 mph 1012.3mb 57f 67f
9:12 2 5 mph 1012.3mb 57f 66f
9:06 3 5 mph 1012.2mb 57f 64f
9:00 3 5 mph 1012.2mb 57f 64f
8:54 2 3 mph 1012.1mb 58f 64f
8:48 2 5 mph 1012.3mb 58f 64f
8:42 5 6 mph 1012.3mb 58f 63f
8:36 3 7 mph 1012.2mb 57f 63f
8:30 6 7 mph 1012.1mb 57f 64f
8:24 5 6 mph 1012.3mb 57f 63f
8:18 5 6 mph 1012.4mb 57f 63f
8:12 5 6 mph 1012.4mb 57f 63f
8:06 3 7 mph 1012.3mb 57f 64f
8:00 7 9 mph 1012.3mb 57f 63f
7:54 3 5 mph 1012.3mb 57f 64f
7:48 3 6 mph 1012.4mb 57f 64f
7:42 6
mph
1012.4mb 57f 65f
7:36 3 5 mph 1012.4mb 57f 66f
7:30 3 6 mph 1012.5mb 57f 65f
7:24 5 6 mph 1012.5mb 57f 64f
7:18 6 8 mph 1012.5mb 57f 64f
7:12 7 9 mph 1012.5mb 57f 65f
7:06 5 8 mph 1012.5mb 57f 66f
7:00 3 6 mph 1012.5mb 57f 67f
6:54 6 10 mph 1012.5mb 57f 70f
6:48 5 8 mph 1012.6mb 57f 69f
6:42 6 7 mph 1012.6mb 57f 67f
6:36 7 11 mph 1012.6mb 57f 67f
6:30 5 9 mph 1012.7mb 57f 68f
6:24 7 10 mph 1012.8mb 57f 68f
6:18 7 13 mph 1012.8mb 57f 68f
6:12 5 7 mph 1012.7mb 57f 69f
6:06 5 8 mph 1012.7mb 57f 71f
6:00 5 11 mph 1012.5mb 57f 71f
5:54 8 15 mph 1012.4mb 57f 71f
5:48 9 15 mph 1012.5mb 57f 71f
5:42 6 10 mph 1012.6mb 57f 71f
5:36 7 15 mph 1012.6mb 57f 71f
5:30 9 14 mph 1012.4mb 57f 71f
5:24 9 13 mph 1012.4mb 57f 70f
5:18 8 14 mph 1012.4mb 57f 70f
5:12 7 14 mph 1012.5mb 57f 71f
5:06 9 16 mph 1012.5mb 57f 71f
5:00 9 18 mph 1012.5mb 57f 71f
4:54 9 17 mph 1012.5mb 57f 71f
4:48 11 18 mph 1012.5mb 57f 71f
4:42 13 17 mph 1012.5mb 57f 71f
4:36 9 17 mph 1012.5mb 57f 70f
4:30 11 16 mph 1012.6mb 57f 70f
4:24 10 15 mph 1012.7mb 57f 69f
4:18 10 17 mph 1012.8mb 57f 69f
4:12 8 17 mph 1012.8mb 57f 69f
4:06 8 13 mph 1012.8mb 57f 70f
4:00 8 13 mph 1012.8mb 57f 70f
3:54 9 16 mph 1012.8mb 57f 70f
3:48 10 15 mph 1012.7mb 57f 70f
3:42 10 15 mph 1012.8mb 57f 70f
3:36 10 15 mph 1012.9mb 57f 70f
3:30 11 20 mph 1012.9mb 57f 70f
3:24 10 17 mph 1013mb 57f 70f
3:18 9 15 mph 1013.1mb 57f 69f
3:12 9 14 mph 1013.2mb 57f 69f
3:06 9 16 mph 1013.3mb 57f 69f
3:00 11 17 mph 1013.3mb 57f 69f
2:54 9 15 mph 1013.4mb 57f 68f
2:48 11 20 mph 1013.6mb 57f 68f
2:42 10 22 mph 1013.6mb 57f 68f
2:36 16 21 mph 1013.6mb 57f 68f
2:30 14 21 mph 1013.6mb 56f 69f
2:24 15 22 mph 1013.6mb 56f 69f
2:18 15 22 mph 1013.6mb 56f 69f
2:12 11 23 mph 1013.7mb 56f 69f
2:06 13 21 mph 1013.8mb 57f 69f
2:00 14 18 mph 1013.8mb 56f 69f
1:54 16 23 mph 1013.7mb 56f 69f
1:48 16 24 mph 1013.8mb 56f 69f
1:42 13 22 mph 1013.9mb 56f 69f
1:36 14 21 mph 1014mb 56f 69f
1:30 17 24 mph 1014.1mb 56f 69f
1:24 13 21 mph 1014.2mb 56f 69f
1:18 13 22 mph 1014.2mb 56f 69f
1:12 11 22 mph 1014.3mb 56f 69f
1:06 13 21 mph 1014.4mb 56f 69f
1:00 14 21 mph 1014.5mb 56f 69f
12:54 14 20 mph 1014.5mb 56f 69f
12:48 11 20 mph 1014.5mb 56f 69f
12:42 14 22 mph 1014.6mb 56f 69f
12:36 15 22 mph 1014.6mb 56f 69f
12:30 11 21 mph 1014.7mb 56f 69f
12:24 14 20 mph 1014.8mb 56f 69f
12:18 11 22 mph 1014.9mb 56f 69f
12:12 13 24 mph 1015mb 56f 69f
12:06 14 22 mph 1015.1mb 56f 69f
12:00 10 17 mph 1015.1mb 56f 69f
mar. 08/26 11:54 9 22 mph 1015.2mb 56f 69f
11:48 11 21 mph 1015.3mb 56f 69f
11:42 10 18 mph 1015.3mb 56f 69f
11:36 10 23 mph 1015.4mb 56f 69f
11:30 13 26 mph 1015.3mb 56f 69f
11:24 15 26 mph 1015.1mb 56f 70f
11:18 15 26 mph 1015mb 56f 70f
11:12 15 23 mph 1015mb 56f 70f
11:06 13 21 mph 1015.3mb 56f 70f
11:00 14 23 mph 1015.4mb 56f 69f
10:54 14 21 mph 1015.3mb 56f 70f
10:48 11 22 mph 1015.3mb 56f 70f
10:42 13 23 mph 1015.4mb 56f 69f
10:36 10 22 mph 1015.6mb 56f 69f
10:30 16 24 mph 1015.5mb 56f 69f
10:24 10 18 mph 1015.5mb 56f 69f
10:18 11 20 mph 1015.7mb 56f 69f
10:12 11 18 mph 1015.9mb 56f 69f
10:06 13 17 mph 1016mb 56f 69f
10:00 14 21 mph 1016.1mb 56f 69f
9:54 13 20 mph 1016.1mb 56f 69f
9:48 9 21 mph 1016.2mb 56f 69f
9:42 13 17 mph 1016.1mb 57f 69f
9:36 13 17 mph 1016.2mb 57f 69f
9:30 13 18 mph 1016.2mb 57f 69f
9:24 15 20 mph 1016.3mb 57f 69f
9:18 10 20 mph 1016.4mb 58f 68f
9:12 11 17 mph 1016.2mb 58f 69f
9:06 3 9 mph 1016.1mb 58f 69f
9:00 5 10 mph 1016.2mb 59f 69f
8:54 6 15 mph 1016.1mb 59f 69f
8:48 6 10 mph 1016.3mb 59f 69f
8:42 5 9 mph 1016.5mb 59f 69f
8:36 6 14 mph 1016.5mb 59f 69f
8:30 6 10 mph 1016.6mb 59f 69f
8:24 7 11 mph 1016.6mb 59f 69f
8:18 7 13 mph 1016.6mb 59f 69f
8:12 7 13 mph 1016.6mb 58f 69f
8:06 7 14 mph 1016.5mb 59f 70f
8:00 8 16 mph 1016.4mb 59f 70f
7:54 9 14 mph 1016.3mb 59f 71f
7:48 8 16 mph 1016.3mb 60f 70f
7:42 7 10 mph 1016.3mb 60f 70f
7:36 6 11 mph 1016.2mb 60f 70f
7:30 7 15 mph 1016.3mb 60f 71f
7:24 11 17 mph 1016.2mb 60f 71f
7:18 9 15 mph 1016.3mb 60f 71f
7:12 10 21 mph 1016.3mb 60f 71f
7:06 11 20 mph 1016.3mb 60f 71f
7:00 11 20 mph 1016.3mb 60f 71f
6:54 11 20 mph 1016.3mb 61f 71f
6:48 11 17 mph 1016.3mb 61f 71f
6:42 6 15 mph 1016.4mb 61f 72f
6:36 10 16 mph 1016.5mb 61f 72f
6:30 10 14 mph 1016.5mb 60f 73f
6:24 8 18 mph 1016.5mb 60f 73f
6:18 11 21 mph 1016.6mb 60f 73f
6:12 11 21 mph 1016.7mb 60f 72f
6:06 11 22 mph 1016.9mb 60f 73f
6:00 14 20 mph 1016.9mb 60f 73f
5:54 11 18 mph 1016.9mb 60f 74f
5:48 10 18 mph 1016.9mb 60f 74f
5:42 10 20 mph 1017.1mb 60f 74f
5:36 14 21 mph 1017.1mb 60f 74f
5:30 13 18 mph 1017.1mb 60f 75f
5:24 9 14 mph 1017.1mb 60f 76f
5:18 9 15 mph 1017.1mb 60f 76f
5:12 9 15 mph 1017.1mb 60f 77f
5:06 7 15 mph 1017.3mb 60f 77f
5:00 10 15 mph 1017.3mb 60f 77f
4:54 7 13 mph 1017.4mb 60f 77f